Friday Harbor, WA

6:58 AM PDT on August 29, 2016 (GMT -0700)
Friday Harbor

Weather History for KFHR - April, 2014

Change the Weather History Date:

Friday, April 4, 2014

  Actual Average Record
Temperature  
Mean Temperature 48 °F -  
Max Temperature 57 °F 51 °F 60 °F (2002)
Min Temperature 39 °F 36 °F 28 °F (2009)
Degree Days  
Heating Degree Days 17    
Moisture  
Dew Point 41 °F    
Average Humidity 79    
Maximum Humidity 96    
Minimum Humidity 55    
Precipitation  
Precipitation 0.00 in - - ()
Sea Level Pressure  
Sea Level Pressure 29.93 in    
Wind  
Wind Speed 4 mph (SSE)    
Max Wind Speed 10 mph    
Max Gust Speed -    
Visibility 10 miles    
Events      
Averages and records for this station are not official NWS values.
T = Trace of Precipitation, MM = Missing Value Source: NWS Daily Summary

Daily Weather History Graph

Daily Weather History Graph

Search for Another Location

Airport or City:

Trip Planner

Search our weather history database for the weather conditions in past years. The results will help you decide how hot, cold, wet, or windy it might be!

Date:

Astronomy

Apr. 04, 2014 Rise Set
Actual Time 6:43 AM PDT 7:47 PM PDT
Civil Twilight 6:11 AM PDT 8:19 PM PDT
Nautical Twilight 5:33 AM PDT 8:58 PM PDT
Astronomical Twilight 4:52 AM PDT 9:39 PM PDT
Moon 9:47 AM PDT (4/4) 12:27 AM PDT (4/4)
Length of Visible Light 14h 07m
Length of Day
13h 03m
Waxing Crescent, 26% of the Moon is Illuminated
Apr 4
Waxing Crescent
Apr 7
First Quarter
Apr 15
Full
Apr 22
Last Quarter
Apr 28
New

Hourly Weather History & Observations

Time (PDT) Temp. Windchill Dew Point Humidity Pressure Visibility Wind Dir Wind Speed Gust Speed Precip Events Conditions
12:53 AM 45.0 °F 43.5 °F 41.0 °F 86% 29.89 in 10.0 mi South 3.5 mph - N/A   Mostly Cloudy
1:53 AM 42.1 °F - 39.9 °F 92% 29.88 in 10.0 mi Calm Calm - N/A   Scattered Clouds
2:53 AM 42.1 °F - 39.9 °F 92% 29.89 in 10.0 mi Calm Calm - N/A   Mostly Cloudy
3:46 AM 43.0 °F - 41.0 °F 93% 29.90 in 10.0 mi Calm Calm - N/A   Overcast
3:53 AM 43.0 °F - 41.0 °F 93% 29.90 in 10.0 mi Calm Calm - N/A   Overcast
4:11 AM 41.0 °F - 39.9 °F 96% 29.89 in 10.0 mi Calm Calm - N/A   Mostly Cloudy
4:53 AM 41.0 °F - 39.0 °F 93% 29.90 in 10.0 mi Calm Calm - N/A   Clear
5:53 AM 39.0 °F - 37.0 °F 93% 29.91 in 10.0 mi Calm Calm - N/A   Mostly Cloudy
6:53 AM 39.0 °F - 37.9 °F 96% 29.92 in 10.0 mi Calm Calm - N/A   Mostly Cloudy
7:53 AM 44.1 °F 41.5 °F 42.1 °F 93% 29.93 in 10.0 mi South 4.6 mph - N/A   Overcast
8:53 AM 46.9 °F - 41.0 °F 80% 29.94 in 10.0 mi SSW 8.1 mph - N/A   Overcast
9:26 AM 46.9 °F - 43.0 °F 86% 29.94 in 10.0 mi SSE 9.2 mph - N/A   Overcast
9:42 AM 46.9 °F - 43.0 °F 86% 29.94 in 10.0 mi SSE 6.9 mph - N/A   Mostly Cloudy
9:53 AM 48.9 °F - 44.1 °F 83% 29.94 in 10.0 mi SSE 9.2 mph - N/A   Mostly Cloudy
10:15 AM 48.0 °F - 43.0 °F 83% 29.94 in 10.0 mi SE 6.9 mph - N/A   Overcast
10:31 AM 48.9 °F - 44.1 °F 83% 29.95 in 10.0 mi SE 9.2 mph - N/A   Overcast
10:53 AM 50.0 °F - 43.0 °F 77% 29.95 in 10.0 mi SE 10.4 mph - N/A   Overcast
11:21 AM 48.0 °F - 42.1 °F 80% 29.95 in 10.0 mi SE 8.1 mph - N/A   Mostly Cloudy
11:53 AM 50.0 °F - 43.0 °F 77% 29.96 in 10.0 mi SE 8.1 mph - N/A   Overcast
12:19 PM 52.0 °F - 43.0 °F 71% 29.95 in 10.0 mi ESE 9.2 mph - N/A   Overcast
12:53 PM 55.0 °F - 42.1 °F 62% 29.95 in 10.0 mi SE 8.1 mph - N/A   Mostly Cloudy
1:53 PM 54.0 °F - 41.0 °F 62% 29.94 in 10.0 mi SE 9.2 mph - N/A   Partly Cloudy
2:53 PM 57.0 °F - 41.0 °F 55% 29.93 in 10.0 mi SE 6.9 mph - N/A   Clear
3:53 PM 55.0 °F - 39.0 °F 55% 29.92 in 10.0 mi ESE 9.2 mph - N/A   Scattered Clouds
4:53 PM 52.0 °F - 37.0 °F 57% 29.93 in 10.0 mi SW 9.2 mph - N/A   Partly Cloudy
5:53 PM 50.0 °F - 39.0 °F 66% 29.94 in 10.0 mi Variable 5.8 mph - N/A   Overcast
6:53 PM 50.0 °F - 39.0 °F 66% 29.94 in 10.0 mi SW 4.6 mph - N/A   Overcast
7:53 PM 48.0 °F - 39.0 °F 71% 29.94 in 10.0 mi Variable 5.8 mph - N/A   Overcast
8:53 PM 48.0 °F - 39.0 °F 71% 29.95 in 10.0 mi Variable 4.6 mph - N/A   Overcast
9:53 PM 46.9 °F - 37.0 °F 68% 29.95 in 10.0 mi WSW 3.5 mph - N/A   Overcast
10:53 PM 44.1 °F - 37.9 °F 79% 29.96 in 10.0 mi Calm Calm - N/A   Overcast
11:53 PM 43.0 °F - 37.9 °F 82% 29.96 in 10.0 mi Calm Calm - N/A   Overcast